Regional Weather Roundup
Issued by NWS

Home | Current Version | Previous Version | Graphics & Text | Print | Product List | Glossary Off
Versions: 1 2 3 4 5 6 7 8 9 10 11 12 13 14 15 16 17 18 19 20 21 22 23 24 25 26 27 28 29 30 31 32 33 34 35 36 37 38 39 40 41 42 43 44 45 46 47 48 49 50

000
ASUS43 KTOP 061608
RWRKS

WEATHER ROUNDUP FOR KANSAS
NATIONAL WEATHER SERVICE GOODLAND KS
1100 AM CDT WED MAY 06 2015

NOTE:  "FAIR" INDICATES FEW OR NO CLOUDS BELOW 12,000 FEET WITH NO
SIGNIFICANT WEATHER AND/OR OBSTRUCTIONS TO VISIBILITY.

KSZ001>006-013>018-027>032-041>047-061700-
NORTHWEST KANSAS

CITY           SKY/WX    TMP DP  RH WIND       PRES   REMARKS
GOODLAND       CLOUDY    53  51  93 S8        29.69S
HAYS           PTSUNNY   64  54  68 S21G28    29.74S
HILL CITY      CLOUDY    62  55  77 S18G26    29.72S
RUSSELL        CLOUDY    63  61  93 S21G26    29.74S
$$

KSZ061>065-074>080-084>089-061700-
SOUTHWEST KANSAS

CITY           SKY/WX    TMP DP  RH WIND       PRES   REMARKS
DODGE CITY     PTSUNNY   68  58  70 S23G33    29.72S
ELKHART          N/A     67  49  52 SW9         N/A
GARDEN CITY    CLOUDY    62  55  77 S21       29.70S
GREAT BEND     CLOUDY    64  59  82 S25G31    29.75S
LIBERAL        PTSUNNY   68  57  68 S22G29    29.74S
PRATT          CLOUDY    66  63  88 S23G30    29.77F
$$

KSZ066>073-081>083-090>101-061700-
SOUTHEAST KANSAS

CITY           SKY/WX    TMP DP  RH WIND       PRES   REMARKS
CHANUTE        CLOUDY    69  60  73 S22G29    29.96F
COFFEYVILLE    TSTM      64  61  90 S17G26    29.99R FOG
HUTCHINSON     CLOUDY    64  60  87 S29G36    29.81F
MEDICINE LODGE   N/A     70  65  84 S20G30    29.77F
NEWTON         CLOUDY    63  55  77 S21G30    29.88S
PARSONS        CLOUDY    66  61  84 S10G22    29.98F
WICHITA INTL   CLOUDY    63  60  90 SE24G31   29.85F
WICHITA JABRA  CLOUDY    63  59  87 SE21G31   29.87S
WICHITA MCCONL CLOUDY    63  60  91 SE24G30   29.87F
WINFIELD       CLOUDY    64  61  90 S22G30    29.91R
$$

KSZ007>012-019>026-033>040-048>060-102>105-061700-
NORTHEAST KANSAS

CITY           SKY/WX    TMP DP  RH WIND       PRES   REMARKS
CONCORDIA      CLOUDY    63  59  87 S21       29.80F
EMPORIA        CLOUDY    63  60  90 S20G28    29.93R
LAWRENCE       CLOUDY    69  60  73 S15G23    29.95R
MANHATTAN      PTSUNNY   70  60  70 S22G37    29.85F
MARYSVILLE     CLOUDY    64  59  82 S10G22    29.85F
OLATHE IND     CLOUDY    66  59  78 S20G31    29.98R
OLATHE EXE     CLOUDY    66  60  81 S14       29.98R
SALINA         CLOUDY    65  60  84 S24G33    29.82R
TOPEKA BILLARD LGT RAIN  65  60  84 S16G23    29.93R
TOPEKA FORBES  LGT RAIN  64  60  87 S16G25    29.92R
$$


USA.gov is the U.S. government's official web portal to all federal, state and local government web resources and services.